Overview Statistics Trail Chart Weather Telemetry Raw packets
 

This is the latest recevied weather packets stored in our database for station/object N1ICS-1. If no packets are shown the sender has not sent any weather packets the latest 10 day(s).

<< 1 2 3 4 5 6 7 >>
Time Temp. Humidity Pressure Rain* Wind** Luminosity Snow
1788572401 23.89° C 98% 1016.1 hPa 0 mm - 0 W/m² -
1788572102 23.89° C 98% 1016.2 hPa 0 mm - 0 W/m² -
1788571802 23.33° C 98% 1016.1 hPa 0 mm - 0 W/m² -
1788571501 23.89° C 98% 1016.1 hPa 0 mm - 0 W/m² -
1788571202 23.89° C 97% 1016.2 hPa 0 mm - 0 W/m² -
1788570902 23.89° C 96% 1016.3 hPa 0 mm - 0 W/m² -
1788570634 24.44° C 96% 1016.4 hPa 0 mm - 0 W/m² -
1788570302 24.44° C 96% 1016.1 hPa 0 mm - 0 W/m² -
1788570002 24.44° C 96% 1016.2 hPa 0 mm - 0 W/m² -
1788569702 24.44° C 96% 1016.1 hPa 0 mm - 0 W/m² -
1788569402 24.44° C 96% 1016.2 hPa 0 mm - 0 W/m² -
1788568801 24.44° C 96% 1016.1 hPa 0 mm - 0 W/m² -
1788568502 24.44° C 96% 1016 hPa 0 mm - 0 W/m² -
1788568202 24.44° C 96% 1015.9 hPa 0 mm - 0 W/m² -
1788567902 25° C 96% 1016 hPa 0 mm - 0 W/m² -
1788567601 25° C 95% 1016 hPa 0 mm - 1 W/m² -
1788567302 25° C 95% 1015.9 hPa 0 mm - 1 W/m² -
1788567002 25° C 95% 1016.2 hPa 0 mm - 3 W/m² -
1788566702 25.56° C 95% 1016 hPa 0 mm - 5 W/m² -
1788566403 25.56° C 95% 1015.9 hPa 0 mm - 7 W/m² -
1788565502 26.11° C 94% 1015.8 hPa 0 mm - 21 W/m² -
1788565201 26.67° C 90% 1015.9 hPa 0 mm - 26 W/m² -
1788564902 26.67° C 89% 1016.1 hPa 0 mm - 31 W/m² -
1788564602 27.22° C 89% 1016 hPa 0 mm - 38 W/m² -
1788564302 27.22° C 88% 1016.1 hPa 0 mm - 44 W/m² -

* Rain latest hour (hover to see other rain measurements)
** Current wind speed in m/s (hover to see current wind gust speed)